Back to catalog

STARLINK-3057

AliveCommunicationsVLEO
NORAD 49139·PAYLOAD·🇺🇸 United States

Launched Sep 14, 2021 from Vandenberg Space Force Base

Loading…

Next Passes (next 24 hours)

TLE

FreshSource: CelesTrak SupGP

Epoch: Sep 14, 2026, 14:17 UTC

1 49139C 21082K   26257.59562500  .00426020  00000+0  65719-2 0  2573
2 49139  69.9993 125.9388 0003198 272.2862 203.9873 15.53752168    15

Track STARLINK-3057 in real time with AllMySat

Download on the App Store